Weather History for KLNR - January, 2013

Change the Weather History Date:

Tuesday, January 15, 2013

  Actual Average Record
Temperature  
Mean Temperature 19 °F -  
Max Temperature 30 °F 24 °F 42 °F (2006)
Min Temperature 8 °F 9 °F -20 °F (2009)
Degree Days  
Heating Degree Days 46    
Moisture  
Dew Point 9 °F    
Average Humidity 68    
Maximum Humidity 84    
Minimum Humidity 43    
Precipitation  
Precipitation 0.00 in - - ()
Sea Level Pressure  
Sea Level Pressure 30.29 in    
Wind  
Wind Speed 3 mph (South)    
Max Wind Speed 13 mph    
Max Gust Speed -    
Visibility 9 miles    
Events      
Averages and records for this station are not official NWS values.
T = Trace of Precipitation, MM = Missing Value Source: NWS Daily Summary

Daily Weather History Graph

Daily Weather History Graph

Search for Another Location

Airport or City:

Trip Planner

Search our weather history database for the weather conditions in past years. The results will help you decide how hot, cold, wet, or windy it might be!

Date:

Astronomy

Jan. 15, 2013 Rise Set
Actual Time 7:29 AM CST 4:51 PM CST
Civil Twilight 6:58 AM CST 5:22 PM CST
Nautical Twilight 6:22 AM CST 5:57 PM CST
Astronomical Twilight 5:48 AM CST 6:32 PM CST
Moon 9:26 AM CST (1/15) 9:50 PM CST (1/15)
Length of Visible Light 10h 24m
Length of Day
9h 21m
Waxing Crescent, 19% of the Moon is Illuminated
Jan 15
Waxing Crescent
Jan 18
First Quarter
Jan 26
Full
Feb 3
Last Quarter
Feb 10
New

Hourly Weather History & Observations

Time (CST) Temp. Windchill Dew Point Humidity Pressure Visibility Wind Dir Wind Speed Gust Speed Precip Events Conditions
12:56 AM 8.1 °F - 3.9 °F 83% 30.41 in 9.0 mi Calm Calm - N/A   Clear
1:56 AM 9.0 °F - 5.0 °F 84% 30.43 in 9.0 mi Calm Calm - N/A   Clear
2:56 AM 8.1 °F - 3.9 °F 83% 30.42 in 9.0 mi Calm Calm - N/A   Clear
3:56 AM 10.0 °F 3.6 °F 5.0 °F 80% 30.41 in 8.0 mi ENE 3.5 mph - N/A   Clear
4:56 AM 10.9 °F 4.7 °F 7.0 °F 84% 30.38 in 8.0 mi East 3.5 mph - N/A   Clear
5:56 AM 10.0 °F 3.6 °F 5.0 °F 80% 30.38 in 9.0 mi East 3.5 mph - N/A   Clear
6:56 AM 10.0 °F - 5.0 °F 80% 30.38 in 8.0 mi Calm Calm - N/A   Clear
7:56 AM 10.0 °F - 5.0 °F 80% 30.39 in 7.0 mi Calm Calm - N/A   Clear
8:56 AM 12.9 °F 5.2 °F 9.0 °F 84% 30.40 in 7.0 mi East 4.6 mph - N/A   Clear
9:56 AM 19.0 °F 13.9 °F 12.9 °F 77% 30.39 in 8.0 mi East 3.5 mph - N/A   Clear
10:56 AM 26.1 °F 18.4 °F 12.9 °F 58% 30.35 in 10.0 mi SW 6.9 mph - N/A   Clear
11:56 AM 28.9 °F 18.6 °F 12.0 °F 49% 30.32 in 10.0 mi SSW 12.7 mph - N/A   Clear
12:56 PM 30.0 °F 23.2 °F 12.0 °F 47% 30.29 in 10.0 mi WSW 6.9 mph - N/A   Clear
1:56 PM 30.0 °F 20.5 °F 12.0 °F 47% 30.26 in 10.0 mi SW 11.5 mph - N/A   Clear
2:56 PM 30.9 °F 24.3 °F 12.0 °F 46% 30.25 in 10.0 mi SW 6.9 mph - N/A   Clear
3:56 PM 30.9 °F 22.8 °F 10.9 °F 43% 30.24 in 10.0 mi SW 9.2 mph - N/A   Clear
5:56 PM 26.1 °F 17.6 °F 12.9 °F 58% 30.23 in 10.0 mi SSW 8.1 mph - N/A   Clear
6:56 PM 25.0 °F 16.3 °F 14.0 °F 63% 30.20 in 10.0 mi South 8.1 mph - N/A   Clear
7:56 PM 24.1 °F 14.4 °F 12.9 °F 62% 30.18 in 10.0 mi South 9.2 mph - N/A   Clear
8:56 PM 24.1 °F 17.0 °F 12.0 °F 60% 30.15 in 10.0 mi SSW 5.8 mph - N/A   Clear
9:56 PM 21.9 °F 14.5 °F 12.0 °F 66% 30.12 in 10.0 mi SSW 5.8 mph - N/A   Clear
10:56 PM 18.0 °F - 10.0 °F 71% 30.10 in 10.0 mi Calm Calm - N/A   Clear
11:56 PM 19.0 °F - 10.0 °F 68% 30.06 in 10.0 mi Calm Calm - N/A   Clear